Skip Page Navigation
NASA JPL Caltech
NASA Logo - Jet Propulsion Laboratory + View the NASA Portal
+ Center for Near-Earth Object Studies
JPL Home Earth Solar System Stars & Galaxies Technology
JPL Solar System Dynamics
BODIES ORBITS EPHEMERIDES TOOLS PHYSICAL DATA DISCOVERY FAQ SITE MAP
IMPORTANT: The SSD Announcement email list is now available. Major changes are coming in the near future, including possible hostname and/or URL changes. To be notified of such changes, subscribe to this email list.

Please visit this page for more details.


JPL Small-Body Database Browser
Search: [ help ]  
(2015 YD10)
Classification: Amor [NEO]          SPK-ID: 3739066
Ephemeris | Orbit Diagram | Orbital Elements | Mission Design | Physical Parameters | Close-Approach Data ]

[ hide orbit diagram ]

For accurate long-term ephemerides, please instead use our Horizons system.This orbit viewer was implemented using two-body methods, and hence should not be used for determining accurate long-term trajectories (over several years or decades) or planetary encounter circumstances.


[ revert to old Java-based viewer ]

Orbital Elements at Epoch 2458600.5 (2019-Apr-27.0) TDB
Reference: JPL 9 (heliocentric ecliptic J2000)
 Element Value Uncertainty (1-sigma)   Units 
e .07778113525584718 0.00033237  
a 1.143981871800863 0.00068139 au
q 1.055001663100083 0.00024822 au
i 25.10473236114943 0.043804 deg
node 101.7122435868452 0.0042734 deg
peri 50.79655732210703 0.18025 deg
M 208.4300668443747 0.6795 deg
tp 2458788.664503487875
(2019-Nov-01.16450349)
1.0117 TDB
period 446.9172734019965
1.22
0.3993
0.001093
d
yr
n .8055182053260772 0.00071969 deg/d
Q 1.232962080501644 0.00073439 au
  Orbit Determination Parameters
   # obs. used (total)      26  
   data-arc span      14 days  
   first obs. used      2015-12-31  
   last obs. used      2016-01-14  
   planetary ephem.      DE431  
   SB-pert. ephem.      SB431-N16  
   condition code      7  
   norm. resid. RMS      .4301  
   source      ORB  
   producer      Otto Matic  
   solution date      2018-Feb-10 07:07:19  

Additional Information
 Earth MOID = .0998559 au 
 Jupiter MOID = 3.85868 au 
 T_jup = 5.395 
[ show covariance matrix ]

Ephemeris | Orbit Diagram | Orbital Elements | Mission Design | Physical Parameters | Close-Approach Data ]

Physical Parameter Table
Parameter Symbol Value Units Sigma Reference Notes
absolute magnitude H 23.7   n/a E2016A38  

[ show close-approach data ]
Ephemeris | Orbit Diagram | Orbital Elements | Mission Design | Physical Parameters | Close-Approach Data ]
ABOUT SSD CREDITS/AWARDS PRIVACY/COPYRIGHT GLOSSARY LINKS
FirstGov
(server date/time)  
NASA Home Page
Site Manager:   Ryan S. Park
Webmaster  Alan B. Chamberlin